STARLINK-33757, 63720

Orbit data source: Space-Track

STARLINK-33757, 63720 is a payload satellite owned by SpaceX/Seattle (US) in LEO that was launched on Mon, 28 Apr 2025 UTC via an FALCON 9 launch vehicle from the Air Force Western Test Range (AFWTR). Payload-class satellites include a variety of spacecraft equipped with specific instruments for various scientific and technological missions. These include communications satellites like Starlink; space stations such as the ISS; scientific satellites like the Hubble; Earth observation satellites from companies like Planet Labs, Umbra, and HawkEye 360; GPS; miniature CubeSats for education and research; and military/defense satellites.

Loading next visibility...
Identifier
63720, 2025-087Z
Orbit
LEO
Country
Flag of USUS
Related business
Manufacturer
SpaceX/Seattle
Mission
Operational Commercial Communications
Bus & Motor
STARLINK V2MO, Unknown motor
Mass
575 kg wet, ~530 kg dry
Launch date (UTC)
2025-04-28 (8 months ago)
Launch vehicle
FALCON 9
Launch site
Air Force Western Test Range (AFWTR)
Object type
Payload
Rocket body
Debris
Shape & HBR
Box + 2 Pan, 17.7 m
Radar Cross Section
36.964 m², Large (>1 m²)

Expand to show TLE details & history
Last TLE update: 16 hours ago

TLE from 16 hours ago
0 STARLINK-33757
1 63720U 25087Z   25348.93896511  .00019030  00000-0  65321-3 0  9997
2 63720  53.1603 253.2303 0001111  50.2518 309.8580 15.30188522 36222
Epoch: 2025-12-14T22:32Z
TLE epoch observation values (Epoch: 2025-12-14T22:32:06.585Z)
Latitude
-0.00007°
Longitude
-168.64188°
Altitude
475.661 km
Speed
7.629 km/s
True Right ascension
16h 52m 55s
True Declination
0° 00' 00"
Sunlit
Object was in daylight at epoch
Visualization orbit readout
Latitude
Unknown
Longitude
Unknown
Altitude
Unknown
Speed
Unknown
Apparent Right ascension
Unknown
Apparent Declination
Unknown
Sunlit
N/A
Visualization observer readout
Local Sidereal Time
13:20:30
Azimuth
Unknown
Elevation
Unknown
Doppler factor
Unknown
Orbital elements
Apogee altitude
476.267 km
Perigee altitude
474.744 km
Semi-major axis
6,853.643 km
Eccentricity
0.00011
Inclination
53.1603°
RAAN
253.2303°
Arg. of periapsis
50.2518°
True anomaly
309.84823°
Mean anomaly
309.858°
Eccentric anomaly
309.85311°
Mean motion
3.82526 °/min
Orbital period
94.11 mins
BSTAR
0.00065321
Loading maneuver chart data...
Computing Atmospheric mass density...
Loading historical data...
Loading historical data...
Loading historical data...
Loading historical data...
Loading historical data...
Loading historical data...
Loading historical data...

Documentation

Showing up to 5 results
|